Weather History for Spirit of St Louis, MO

Change the Weather History Date:

Wednesday, December 19, 2012

  Actual Average Record
Temperature  
Mean Temperature 39 °F -  
Max Temperature 52 °F 39 °F 66 °F (1997)
Min Temperature 27 °F 20 °F -2 °F (2000)
Degree Days  
Heating Degree Days 26    
Moisture  
Dew Point 36 °F    
Average Humidity 80    
Maximum Humidity 92    
Minimum Humidity 63    
Precipitation  
Precipitation 0.11 in - - ()
Sea Level Pressure  
Sea Level Pressure 29.82 in    
Wind  
Wind Speed 5 mph (ESE)    
Max Wind Speed 13 mph    
Max Gust Speed 18 mph    
Visibility 7 miles    
Events Rain , Thunderstorm    
Averages and records for this station are not official NWS values.
T = Trace of Precipitation, MM = Missing Value Source: NWS Daily Summary

Daily Weather History Graph

Daily Weather History Graph

Search for Another Location

Airport:

Trip Planner

Search our weather history database for the weather conditions in past years. The results will help you decide how hot, cold, wet, or windy it might be!

Date:

Astronomy

Dec. 19, 2012 Rise Set
Actual Time 7:16 AM CST 4:43 PM CST
Civil Twilight 6:46 AM CST 5:13 PM CST
Nautical Twilight 6:12 AM CST 5:47 PM CST
Astronomical Twilight 5:40 AM CST 6:19 PM CST
Moon 11:29 AM CST No Moon Set
Length of Visible Light 10h 27m
Length of Day
9h 27m
Waxing Crescent, 45% of the Moon is Illuminated
Dec 19
Waxing Crescent
Dec 19
First Quarter
Dec 28
Full
Jan 4
Last Quarter
Jan 11
New

Hourly Weather History & Observations

Time (CST) Temp. Windchill Dew Point Humidity Pressure Visibility Wind Dir Wind Speed Gust Speed Precip Events Conditions
12:54 AM 33.1 °F - 28.0 °F 82% 29.95 in 10.0 mi Calm Calm - N/A   Clear
1:54 AM 30.9 °F - 27.0 °F 85% 29.96 in 9.0 mi Calm Calm - N/A   Clear
2:54 AM 30.9 °F - 28.0 °F 89% 29.96 in 7.0 mi Calm Calm - N/A   Clear
3:54 AM 27.0 °F - 25.0 °F 92% 29.97 in 5.0 mi Calm Calm - N/A   Clear
4:54 AM 30.0 °F - 27.0 °F 88% 29.97 in 6.0 mi Calm Calm - N/A   Clear
5:54 AM 33.1 °F 30.0 °F 28.9 °F 85% 29.98 in 10.0 mi ESE 3.5 mph - N/A   Clear
6:54 AM 34.0 °F 31.0 °F 28.9 °F 82% 29.99 in 8.0 mi ESE 3.5 mph - N/A   Overcast
7:54 AM 33.1 °F 27.7 °F 28.9 °F 85% 30.00 in 6.0 mi ENE 5.8 mph - N/A   Overcast
8:54 AM 36.0 °F 28.5 °F 30.9 °F 82% 29.99 in 6.0 mi East 10.4 mph - N/A   Haze
9:54 AM 39.0 °F 33.4 °F 32.0 °F 76% 30.01 in 7.0 mi East 8.1 mph - N/A   Overcast
10:54 AM 39.9 °F 33.9 °F 32.0 °F 73% 30.00 in 6.0 mi East 9.2 mph - N/A   Haze
11:54 AM 42.1 °F 35.2 °F 32.0 °F 67% 29.95 in 6.0 mi East 12.7 mph - N/A   Haze
12:54 PM 44.1 °F 38.6 °F 32.0 °F 63% 29.90 in 9.0 mi East 10.4 mph - N/A   Overcast
1:54 PM 44.1 °F 38.1 °F 34.0 °F 68% 29.88 in 6.0 mi East 11.5 mph - N/A   Haze
2:33 PM 44.6 °F 40.2 °F 33.8 °F 66% 29.85 in 6.0 mi ESE 8.1 mph - N/A   Haze
2:54 PM 44.1 °F 40.1 °F 34.0 °F 68% 29.86 in 6.0 mi East 6.9 mph - N/A   Haze
3:54 PM 44.1 °F 39.5 °F 35.1 °F 71% 29.85 in 8.0 mi East 8.1 mph - N/A   Overcast
4:54 PM 43.0 °F 37.7 °F 37.0 °F 80% 29.83 in 6.0 mi East 9.2 mph - N/A   Haze
5:54 PM 45.0 °F 40.1 °F 37.0 °F 74% 29.78 in 9.0 mi East 9.2 mph - N/A   Overcast
6:54 PM 45.0 °F 40.6 °F 37.9 °F 76% 29.76 in 8.0 mi East 8.1 mph - N/A   Overcast
7:30 PM 46.4 °F 41.1 °F 39.2 °F 76% 29.73 in 8.0 mi ESE 11.5 mph 18.4 mph N/A   Overcast
7:54 PM 46.9 °F - 41.0 °F 80% 29.73 in 5.0 mi East 6.9 mph 16.1 mph 0.00 in Rain Light Rain
8:38 PM 46.4 °F 42.9 °F 42.8 °F 87% 29.68 in 8.0 mi East 6.9 mph - 0.02 in Rain Light Rain
8:50 PM 46.4 °F 44.3 °F 42.8 °F 87% 29.68 in 7.0 mi ESE 4.6 mph - 0.02 in Rain Light Rain
8:54 PM 46.9 °F - 42.1 °F 83% 29.68 in 7.0 mi ESE 8.1 mph - 0.02 in Rain Light Rain
9:46 PM 48.2 °F - 44.6 °F 87% 29.63 in 4.0 mi ESE 5.8 mph - 0.03 in Rain , Thunderstorm Light Rain
9:54 PM 48.0 °F - 44.1 °F 86% 29.63 in 5.0 mi ESE 6.9 mph - 0.03 in Rain , Thunderstorm Light Rain
10:13 PM 48.2 °F - 44.6 °F 87% 29.60 in 6.0 mi ESE 8.1 mph - 0.00 in   Overcast
10:54 PM 48.9 °F - 45.0 °F 86% 29.56 in 6.0 mi ESE 4.6 mph - 0.00 in Rain Light Rain
11:46 PM 51.8 °F - 46.4 °F 82% 29.51 in 9.0 mi Variable 3.5 mph - 0.00 in Rain , Thunderstorm Light Thunderstorms and Rain
11:54 PM 52.0 °F - 46.9 °F 83% 29.51 in 4.0 mi Variable 5.8 mph - 0.06 in Rain , Thunderstorm Heavy Thunderstorms and Rain